Location: Unspecified
(35.7250°N, 0.0000°E)
Time: 05:24:55
(UTC+00:00)

SR - Pass Details

Date: 26 June 2019
Orbit: 575 x 881 km, 66.7° (Epoch: 12 October)

Event Time Altitude Azimuth Distance (km) Brightness Sun altitude
Exits shadow 03:14:28 19° 269° (W) 1,403 ? -15.5°
Maximum altitude 03:16:13 24° 305° (NW) 1,197 ? -15.3°
Drops below altitude 10° 03:19:44 10° 1° (N) 1,912 ? -14.8°
Sets 03:22:21 0° 15° (NNE) 2,844 ? -14.4°
